TimeMST,TemperatureF,Dew PointF,Humidity,Sea Level PressureIn,VisibilityMPH,Wind Direction,Wind SpeedMPH,Gust SpeedMPH,PrecipitationIn,Events,Conditions,WindDirDegrees,DateUTC
12:53 AM,24.1,16.0,71,30.26,10.0,SSE,3.5,-,N/A,,Clear,160,2013-02-15 07:53:00
1:53 AM,21.9,14.0,72,30.28,10.0,Calm,Calm,-,N/A,,Clear,0,2013-02-15 08:53:00
2:53 AM,19.9,12.9,74,30.30,10.0,ENE,4.6,-,N/A,,Clear,70,2013-02-15 09:53:00
3:53 AM,19.0,12.0,74,30.29,10.0,East,3.5,-,N/A,,Clear,90,2013-02-15 10:53:00
4:53 AM,18.0,10.9,74,30.32,10.0,East,3.5,-,N/A,,Clear,90,2013-02-15 11:53:00
5:53 AM,19.0,10.9,71,30.36,10.0,ENE,3.5,-,N/A,,Clear,60,2013-02-15 12:53:00
6:53 AM,18.0,10.0,71,30.42,10.0,Calm,Calm,-,N/A,,Clear,0,2013-02-15 13:53:00
7:53 AM,23.0,15.1,72,30.40,10.0,Calm,Calm,-,N/A,,Clear,0,2013-02-15 14:53:00
8:53 AM,28.9,19.0,67,30.41,10.0,Calm,Calm,-,N/A,,Clear,0,2013-02-15 15:53:00
9:53 AM,36.0,19.9,52,30.38,10.0,Calm,Calm,-,N/A,,Clear,0,2013-02-15 16:53:00
10:53 AM,42.1,14.0,32,30.37,10.0,Calm,Calm,-,N/A,,Clear,0,2013-02-15 17:53:00
11:53 AM,48.0,12.9,24,30.33,10.0,Variable,6.9,17.3,N/A,,Clear,0,2013-02-15 18:53:00
12:53 PM,50.0,10.9,21,30.32,10.0,ENE,10.4,21.9,N/A,,Clear,60,2013-02-15 19:53:00
1:53 PM,50.0,12.0,22,30.32,10.0,NE,11.5,16.1,N/A,,Clear,40,2013-02-15 20:53:00
2:53 PM,51.1,7.0,17,30.31,10.0,NNE,16.1,-,N/A,,Clear,20,2013-02-15 21:53:00
3:53 PM,51.1,7.0,17,30.32,10.0,NNE,16.1,-,N/A,,Clear,20,2013-02-15 22:53:00
4:53 PM,50.0,5.0,16,30.35,10.0,NNE,13.8,-,N/A,,Clear,30,2013-02-15 23:53:00
5:53 PM,44.1,8.1,23,30.40,10.0,NNE,3.5,-,N/A,,Clear,30,2013-02-16 00:53:00
6:53 PM,34.0,12.0,40,30.51,10.0,Calm,Calm,-,N/A,,Clear,0,2013-02-16 01:53:00
7:53 PM,36.0,10.9,36,30.46,10.0,Calm,Calm,-,N/A,,Clear,0,2013-02-16 02:53:00
8:53 PM,30.9,12.9,47,30.49,10.0,South,3.5,-,N/A,,Clear,180,2013-02-16 03:53:00
9:53 PM,30.0,12.0,47,30.47,10.0,Calm,Calm,-,N/A,,Clear,0,2013-02-16 04:53:00
10:53 PM,27.0,14.0,58,30.43,10.0,Calm,Calm,-,N/A,,Clear,0,2013-02-16 05:53:00
11:53 PM,23.0,14.0,68,30.43,10.0,Calm,Calm,-,N/A,,Clear,0,2013-02-16 06:53:00